Theta_e
350 356 362 360 360 360 361 361 361 361 360 357 357 356 356 355 355 356 358 360 360 360 360 360 360 361 360 359 359 359 358 358 357 358 358 358 357 357 358 357 358 354 360
353 357 361 360 359 359 360 361 361 361 361 360 359 358 356 354 355 357 356 358 359 359 359 360 360 361 361 361 361 361 360 359 358 358 359 358 357 357 357 357 357 355 358
354 356 357 360 358 359 360 361 361 361 361 360 359 360 356 356 355 357 359 359 359 359 360 359 361 361 361 361 360 360 359 359 359 357 357 349 352 357 358 356 356 356 356
353 354 355 361 361 362 361 361 361 360 360 360 360 358 359 359 359 360 360 358 359 360 360 360 362 361 361 360 361 360 360 359 362 356 347 347 350 356 357 356 356 355 355
352 353 352 362 362 362 363 362 361 361 360 360 359 359 359 359 359 359 358 360 361 362 360 362 361 361 361 360 359 358 358 357 357 351 345 345 347 354 355 355 355 354 355
352 355 355 362 363 362 362 361 361 361 361 360 359 359 357 356 358 360 361 361 363 362 363 363 362 360 358 357 356 355 354 356 358 347 346 352 348 357 357 356 356 354 355
354 355 353 363 362 363 361 360 361 361 360 359 358 357 355 355 358 360 361 364 363 363 361 359 357 355 356 356 356 356 356 361 347 345 346 346 348 358 355 356 356 355 355
354 354 351 359 360 362 362 361 361 360 359 357 355 351 348 354 358 360 362 363 363 361 361 361 360 358 356 357 356 358 363 361 348 344 346 346 356 357 355 354 355 355 354
354 353 351 350 354 360 361 361 360 359 358 356 354 354 354 353 358 360 363 363 361 361 362 360 357 356 356 357 359 360 360 359 343 344 348 347 359 356 355 355 355 355 355
352 352 349 349 350 348 350 361 360 359 358 357 357 357 358 357 360 363 365 365 362 361 359 358 357 356 355 357 357 357 359 354 346 344 346 349 359 356 356 354 354 355 355
351 350 349 348 348 348 347 351 357 360 358 356 354 356 358 353 356 357 361 363 361 361 360 358 357 356 357 357 359 358 358 347 343 343 347 356 361 358 357 356 354 355 355
345 348 349 348 349 349 352 348 346 348 348 347 347 350 349 351 354 357 360 362 360 359 359 358 358 358 358 351 349 357 355 353 348 347 347 360 361 359 359 357 356 355 355
345 348 348 350 351 351 351 350 348 350 350 349 349 348 351 353 354 355 355 356 351 358 351 354 353 353 351 348 349 349 350 348 351 350 350 361 361 359 358 359 358 356 355
345 346 349 348 345 351 353 349 347 347 348 347 349 347 348 350 351 353 350 351 350 351 348 347 347 346 346 346 345 346 346 348 351 348 348 361 361 361 359 357 358 359 356
343 345 347 347 345 348 346 347 345 345 347 348 346 348 349 347 350 349 348 350 348 347 346 346 346 346 345 345 342 342 339 344 348 347 347 358 359 361 361 360 357 358 359
340 343 346 343 348 348 346 346 347 348 348 349 347 349 348 347 347 348 347 348 347 347 347 344 344 347 350 347 344 342 342 343 346 350 348 353 361 358 365 364 361 358 358
339 344 343 343 348 347 343 347 346 349 350 349 346 350 348 348 351 347 345 345 347 349 348 346 345 350 348 349 347 349 348 346 346 349 349 353 357 360 365 366 364 362 360
341 342 344 348 346 346 344 344 345 346 347 346 346 349 349 347 353 352 347 346 351 353 349 348 349 349 348 349 348 348 348 350 350 349 349 350 353 357 363 365 363 364 363
341 341 343 344 343 345 344 346 346 345 345 346 351 349 347 347 353 351 350 349 350 349 350 349 349 348 347 347 349 349 348 351 350 354 351 353 354 356 354 360 362 361 362
342 342 342 343 343 344 345 348 347 346 348 349 351 352 351 351 353 353 348 351 352 348 346 345 345 348 348 346 353 351 347 347 347 348 351 354 352 353 356 352 355 357 362
343 341 342 342 343 346 346 346 345 344 346 349 349 352 353 352 354 354 352 351 350 348 347 349 347 347 346 347 344 344 343 348 348 346 350 352 352 357 353 352 350 352 353
343 342 343 344 345 346 347 347 348 348 348 350 351 352 351 352 351 351 350 350 349 349 349 349 348 344 345 347 341 339 335 336 343 345 347 346 344 352 354 355 352 354 353
342 342 345 346 346 345 350 349 345 344 347 348 348 348 350 352 353 354 352 351 350 350 348 348 348 347 342 346 346 340 332 330 334 342 345 350 349 350 351 353 353 354 350
342 345 347 349 346 348 351 346 343 340 340 344 346 349 350 353 355 356 354 351 352 352 349 347 351 349 344 339 343 347 342 340 332 329 340 343 346 351 350 349 351 353 351
344 345 349 349 348 348 352 348 345 342 344 347 348 349 350 353 353 354 356 353 352 352 349 350 346 345 346 342 342 340 339 340 339 334 329 335 342 345 346 347 348 352 353
345 346 350 348 348 348 351 350 347 344 346 347 347 347 350 351 353 356 355 353 353 351 349 348 346 341 338 340 343 341 340 334 333 333 330 331 333 337 345 343 341 352 354
Wind_Speed
1 4 7 8 9 10 12 16 17 20 22 22 22 22 19 19 19 17 13 12 11 12 13 13 14 13 15 15 14 15 14 14 14 13 13 12 12 11 11 13 12 9 12
5 4 7 5 7 11 11 16 18 20 21 22 21 21 23 19 14 12 9 10 11 11 13 12 13 14 15 17 16 15 16 15 15 14 13 12 11 11 11 12 12 9 11
7 5 4 6 4 8 15 16 20 21 22 23 22 21 20 17 12 10 10 10 9 11 12 13 15 15 15 15 16 15 16 15 15 13 11 4 6 13 11 11 11 11 11
8 4 4 6 6 12 16 18 21 21 23 24 22 20 18 16 13 11 12 12 12 14 13 15 14 14 15 14 14 14 13 12 14 14 4 4 7 12 11 11 11 11 11
7 4 7 12 13 15 20 19 22 22 23 24 23 20 17 14 13 12 13 13 14 14 15 14 13 14 12 12 11 9 7 6 5 10 4 5 4 9 11 11 11 11 12
7 6 11 14 16 18 19 20 23 23 25 26 23 19 13 12 12 11 14 15 16 14 14 13 11 12 10 10 9 7 3 5 7 7 4 6 4 10 12 12 12 12 12
9 10 10 15 16 18 19 19 22 24 27 25 20 15 8 6 11 13 15 16 16 15 13 12 10 9 7 8 6 4 2 8 6 6 4 5 5 10 10 10 11 11 12
13 11 11 17 18 18 20 20 22 23 26 25 21 15 6 6 10 13 16 16 16 15 13 9 8 7 5 5 4 4 6 10 9 5 4 4 7 10 10 9 10 11 11
11 10 9 8 15 19 20 22 23 25 25 24 22 17 11 3 10 14 16 16 15 13 11 8 6 3 1 3 5 5 4 10 6 4 5 3 8 10 10 10 10 11 11
10 9 6 6 5 7 11 22 22 22 23 21 20 17 15 12 14 14 12 12 13 11 9 7 5 1 2 4 3 2 2 1 7 6 4 3 10 13 12 10 10 11 11
9 8 6 7 6 6 6 13 18 22 23 20 16 16 12 3 5 7 7 11 10 10 9 8 5 3 4 5 7 4 3 1 4 4 3 10 12 13 13 12 11 12 12
11 10 7 8 8 6 7 5 4 8 5 5 5 4 4 3 3 4 6 9 9 7 6 6 5 6 6 3 3 6 2 3 3 4 4 14 14 15 16 15 12 12 12
15 11 9 8 10 7 6 4 2 3 2 3 3 2 4 3 3 3 2 2 2 6 3 4 4 3 4 4 4 3 4 4 3 3 2 13 14 14 14 15 15 13 13
15 12 13 8 6 7 5 3 3 2 2 3 4 5 3 2 3 3 2 3 3 3 4 4 3 4 5 5 6 6 5 5 4 5 11 17 14 15 14 13 13 13 12
12 13 13 11 8 9 6 5 4 3 3 4 4 5 4 3 3 3 3 3 4 3 4 4 4 4 5 5 5 6 4 4 8 6 3 10 10 16 14 15 15 15 15
11 14 12 11 10 10 6 7 5 5 5 4 4 5 6 4 4 4 5 5 4 5 4 4 4 4 4 5 5 6 4 5 6 7 4 8 22 19 19 20 19 18 16
11 14 12 11 11 11 8 7 5 6 6 5 6 6 6 6 5 3 4 5 5 5 6 4 3 3 4 3 5 5 4 4 5 6 5 6 11 18 18 18 18 17 17
13 13 12 11 10 9 8 7 5 6 7 6 4 4 6 5 5 4 4 4 4 3 2 1 3 3 4 3 4 4 4 3 4 6 5 5 8 8 15 20 17 15 19
13 12 9 8 9 8 7 5 6 8 5 4 4 4 6 6 6 5 4 4 4 1 2 2 2 2 2 3 4 4 4 4 3 2 4 4 4 7 7 14 17 16 19
11 11 8 7 8 6 4 4 3 3 3 5 5 5 7 5 6 5 4 4 3 2 4 2 2 2 3 4 3 4 4 4 4 1 3 3 2 3 3 4 5 8 18
10 10 10 9 7 5 2 3 3 4 3 2 4 6 6 7 7 6 5 4 3 4 5 2 3 4 2 2 1 3 1 2 3 1 1 4 5 4 3 4 6 6 5
15 15 12 13 9 6 5 3 3 2 2 2 4 5 7 7 7 6 6 5 4 4 5 3 3 2 2 2 2 1 2 3 1 1 2 4 6 3 6 8 9 9 7
12 14 13 13 13 9 6 4 3 2 1 2 3 3 5 7 7 7 7 6 6 3 3 3 3 4 2 2 3 3 0 3 1 0 2 1 3 0 8 6 8 8 6
15 12 13 13 13 8 8 6 6 5 4 4 4 5 5 8 7 6 6 5 5 3 4 4 3 3 2 3 3 3 3 3 3 2 1 2 3 7 9 6 6 6 7
14 13 11 13 11 9 9 9 7 5 4 3 3 6 5 5 6 5 6 6 5 4 4 4 2 3 3 3 3 1 1 1 2 2 2 3 2 6 8 7 5 6 8
13 12 11 12 11 8 9 10 9 8 6 4 4 4 4 4 4 5 6 5 5 4 4 3 3 3 4 3 3 3 2 2 2 2 2 3 3 4 6 4 5 6 7
Wind_Direction
191 148 129 105 117 122 130 143 142 135 133 132 131 130 125 130 130 118 106 108 114 114 113 117 115 128 123 121 123 117 119 121 118 119 121 125 132 141 144 132 132 139 138
136 122 123 127 140 144 146 143 148 139 135 136 134 130 130 132 125 118 109 119 116 122 117 119 125 116 111 113 118 117 122 122 122 127 126 128 126 145 142 137 134 139 141
130 120 105 80 127 154 161 151 150 144 137 134 132 130 132 129 128 133 128 120 115 123 132 123 113 114 115 120 115 122 121 129 125 124 114 87 111 124 136 141 136 137 143
127 125 100 59 49 130 151 151 149 144 137 130 130 126 122 123 130 130 129 122 114 116 124 115 117 117 120 122 118 116 124 136 125 126 129 125 121 125 135 140 142 142 147
118 108 70 69 76 109 134 145 143 144 140 134 130 124 122 122 126 126 130 128 117 119 119 122 116 118 113 107 105 103 115 152 166 131 120 116 112 124 136 142 143 150 145
114 91 76 83 86 106 124 136 139 141 136 129 123 118 108 110 124 133 138 132 127 121 123 124 119 115 117 115 118 119 166 220 188 125 149 125 101 121 131 145 159 148 146
107 98 85 84 88 99 110 129 137 137 130 119 116 110 108 81 123 131 135 131 125 129 124 127 131 125 125 117 118 102 331 153 124 119 143 132 132 129 129 136 139 146 148
125 119 103 96 93 101 107 123 127 130 131 130 130 122 83 75 135 137 136 127 132 131 137 129 125 128 121 104 102 79 62 121 122 127 152 143 150 137 134 141 145 143 152
120 119 117 110 101 99 111 115 125 133 134 135 143 149 146 118 137 139 135 135 134 140 146 143 141 137 95 57 57 65 83 121 133 136 171 168 162 147 142 145 152 152 152
131 132 133 119 101 94 105 123 127 134 135 138 145 149 151 161 142 137 136 143 140 147 153 152 160 199 322 337 12 18 24 166 160 161 167 193 178 159 152 151 159 161 158
136 140 141 131 113 93 98 119 129 137 144 152 148 152 151 137 118 127 145 150 154 164 170 173 178 232 276 300 296 274 228 177 161 153 165 194 193 174 165 162 164 168 166
150 160 161 149 134 141 127 113 114 139 125 138 143 145 136 121 129 155 173 166 171 187 198 199 206 239 259 267 264 277 234 218 155 170 190 190 198 191 180 170 173 174 179
161 160 164 155 152 150 139 144 149 135 123 90 103 172 130 135 178 199 199 181 168 207 230 236 258 253 254 241 270 254 222 221 178 140 208 203 204 207 197 184 181 180 183
165 165 162 160 151 143 152 154 155 137 128 160 183 181 201 179 190 219 206 198 198 223 224 233 244 259 265 261 259 253 232 210 169 172 209 200 195 218 207 203 192 190 188
167 162 166 160 161 160 158 158 156 176 181 203 193 205 181 197 227 197 229 218 208 218 231 245 236 245 255 258 248 247 240 206 180 188 184 194 185 230 218 206 201 202 195
171 176 162 163 167 165 167 171 180 179 197 205 216 219 182 182 193 217 213 220 229 218 224 225 227 246 262 242 256 269 235 206 195 196 164 184 205 215 212 206 203 199 206
153 160 162 161 165 173 183 178 178 188 201 199 198 207 187 191 191 212 183 200 232 226 229 227 262 259 286 301 262 264 281 221 212 211 196 192 210 219 217 214 213 199 206
146 150 161 159 162 169 161 156 176 176 183 195 190 191 208 201 219 223 189 204 225 184 215 284 279 260 256 245 262 260 268 256 228 209 222 182 207 209 216 212 210 212 210
155 156 156 155 164 174 167 145 154 167 170 185 184 193 217 217 218 211 228 226 220 160 194 212 263 247 273 287 272 277 277 278 310 312 225 225 214 208 211 219 216 214 215
160 161 169 160 174 170 152 143 124 158 191 191 190 197 208 219 223 214 236 235 162 153 255 189 251 272 237 246 276 290 273 275 266 291 108 143 190 231 237 226 252 225 208
173 166 164 164 184 157 144 147 161 184 188 199 212 202 211 229 230 226 213 224 187 201 236 258 227 228 268 234 309 305 321 56 56 168 181 189 73 279 182 247 232 244 230
177 182 169 175 173 187 169 162 137 150 217 207 200 217 214 219 217 210 210 212 205 212 212 236 212 253 261 204 183 91 315 327 75 229 227 334 104 312 307 250 230 213 208
178 174 174 180 177 186 178 109 81 49 320 253 227 232 230 221 235 214 203 197 206 190 209 219 203 199 231 311 199 173 184 235 320 41 113 190 94 200 268 275 223 214 189
187 179 175 174 182 185 164 168 180 173 188 227 217 223 213 217 222 210 202 204 205 195 198 213 194 182 145 242 297 191 220 175 192 322 90 232 200 204 229 263 211 180 192
184 184 178 176 179 180 174 181 191 192 219 236 216 199 216 218 231 223 204 206 212 212 216 212 203 188 186 192 215 260 191 227 203 145 257 236 241 221 232 219 183 185 193
186 180 176 182 192 182 178 184 193 206 200 197 213 203 223 221 233 242 218 211 203 193 203 228 201 182 197 218 232 240 195 181 222 167 211 247 212 229 227 175 199 190 202